Weather History for KEKQ - March, 2012

Change the Weather History Date:

Tuesday, March 27, 2012

  Actual Average Record
Temperature  
Mean Temperature 58 °F -  
Max Temperature 77 °F 61 °F - (-1)
Min Temperature 39 °F 36 °F - (-1)
Degree Days  
Heating Degree Days 7    
Growing Degree Days 8 (Base 50)    
Moisture  
Dew Point 41 °F    
Average Humidity 59    
Maximum Humidity 89    
Minimum Humidity 33    
Precipitation  
Precipitation 0.00 in - - ()
Sea Level Pressure  
Sea Level Pressure 30.20 in    
Wind  
Wind Speed 5 mph (NNE)    
Max Wind Speed 8 mph    
Max Gust Speed -    
Visibility 10 miles    
Events      
Averages and records for this station are not official NWS values.
T = Trace of Precipitation, MM = Missing Value Source: NWS Daily Summary

Daily Weather History Graph

Daily Weather History Graph

Search for Another Location

Airport or City:

Trip Planner

Search our weather history database for the weather conditions in past years. The results will help you decide how hot, cold, wet, or windy it might be!

Date:

Astronomy

Mar. 27, 2012 Rise Set
Actual Time 6:31 AM CDT 6:57 PM CDT
Civil Twilight 6:05 AM CDT 7:23 PM CDT
Nautical Twilight 5:35 AM CDT 7:54 PM CDT
Astronomical Twilight 5:04 AM CDT 8:25 PM CDT
Moon 9:09 AM CDT (3/27) 11:52 PM CDT (3/27)
Length of Visible Light 13h 17m
Length of Day
12h 25m
Waxing Crescent, 22% of the Moon is Illuminated
Mar 27
Waxing Crescent
Mar 30
First Quarter
Apr 6
Full
Apr 13
Last Quarter
Apr 21
New

Hourly Weather History & Observations

Time (CDT) Temp. Windchill Dew Point Humidity Pressure Visibility Wind Dir Wind Speed Gust Speed Precip Events Conditions
12:56 AM 45.0 °F 41.8 °F 36.0 °F 71% 30.25 in 10.0 mi NE 5.8 mph - N/A   Clear
1:56 AM 43.0 °F 40.3 °F 34.9 °F 73% 30.25 in 10.0 mi NE 4.6 mph - N/A   Clear
2:56 AM 41.9 °F 40.0 °F 34.9 °F 76% 30.25 in 10.0 mi NE 3.5 mph - N/A   Clear
3:56 AM 41.0 °F 37.1 °F 34.0 °F 76% 30.24 in 10.0 mi NE 5.8 mph - N/A   Clear
4:56 AM 41.0 °F 36.4 °F 32.0 °F 70% 30.25 in 10.0 mi NE 6.9 mph - N/A   Clear
5:56 AM 41.9 °F 36.9 °F 32.0 °F 68% 30.26 in 10.0 mi NNE 8.1 mph - N/A   Clear
6:56 AM 39.9 °F 35.8 °F 32.0 °F 73% 30.28 in 10.0 mi NNE 5.8 mph - N/A   Clear
7:56 AM 43.9 °F 40.5 °F 32.9 °F 65% 30.29 in 10.0 mi NNE 5.8 mph - N/A   Clear
8:56 AM 47.8 °F - 34.0 °F 59% 30.28 in 10.0 mi NNE 5.8 mph - N/A   Clear
9:56 AM 54.9 °F - 36.0 °F 49% 30.26 in 10.0 mi Variable 3.5 mph - N/A   Clear
10:56 AM 61.0 °F - 37.9 °F 42% 30.26 in 10.0 mi North 8.1 mph - N/A   Clear
11:56 AM 63.0 °F - 39.9 °F 43% 30.23 in 10.0 mi Calm Calm - N/A   Clear
12:56 PM 68.9 °F - 43.9 °F 40% 30.21 in 10.0 mi NNE 5.8 mph - N/A   Clear
1:56 PM 72.9 °F - 45.0 °F 37% 30.19 in 10.0 mi North 6.9 mph - 0.00 in   Clear
2:56 PM 74.8 °F - 45.0 °F 34% 30.15 in 10.0 mi Variable 3.5 mph - N/A   Clear
3:56 PM 77.9 °F - 46.9 °F 33% 30.14 in 10.0 mi Calm Calm - N/A   Clear
4:56 PM 75.9 °F - 45.9 °F 34% 30.12 in 10.0 mi NE 5.8 mph - N/A   Clear
5:56 PM 74.8 °F - 48.9 °F 40% 30.11 in 10.0 mi Calm Calm - N/A   Clear
6:56 PM 63.0 °F - 52.0 °F 67% 30.12 in 10.0 mi Calm Calm - N/A   Clear
7:56 PM 56.8 °F - 50.0 °F 78% 30.12 in 10.0 mi Calm Calm - N/A   Clear
8:56 PM 54.0 °F - 50.9 °F 89% 30.13 in 10.0 mi Calm Calm - N/A   Clear
9:56 PM 55.9 °F - 48.9 °F 77% 30.13 in 10.0 mi SSW 3.5 mph - N/A   Clear
10:56 PM 59.9 °F - 48.9 °F 67% 30.12 in 10.0 mi SSW 6.9 mph - N/A   Clear
11:56 PM 63.0 °F - 47.8 °F 58% 30.11 in 10.0 mi South 6.9 mph - N/A   Clear